Simultaneous Nadir Overpasses (SNOs) Predictions

Prediction of SNOs between GOES-15 and METOP-B Satellite Orbit:

Table of predicted SNOs for the next 14.0 days since TLE Epoch: 10/21/2023
Index Date Time (GOES-15) GOES-15 Lat,Lon METOP-B Lat,Lon Distance(km) Time Diff (sec)
1 10/21/2023 04:24:40 -0.31, 75.38 -0.30, 75.45 7.20 80
2 10/22/2023 16:46:24 0.31, 73.87 -0.36, 70.77 352.77 80
3 10/23/2023 16:23:07 0.30, 72.82 0.95, 75.73 330.93 80
4 10/25/2023 04:42:02 -0.30, 71.09 -0.28, 71.09 2.99 80
5 10/26/2023 17:03:47 0.30, 69.57 -0.38, 66.42 358.68 80
6 10/27/2023 16:40:29 0.30, 68.52 0.94, 71.37 325.11 80
7 10/29/2023 05:02:04 -0.30, 66.78 -0.28, 66.73 6.03 80
8 10/30/2023 17:21:08 0.30, 65.27 -0.41, 62.07 364.53 80
9 10/31/2023 16:57:50 0.29, 64.22 0.91, 67.02 318.91 80
10 11/02/2023 05:19:25 -0.29, 62.50 -0.26, 62.38 13.16 80
11 11/03/2023 17:38:29 0.28, 60.98 -0.42, 57.71 371.47 80
